AFR610 LFPG-FMEE

Flight info

Callsign AFR610
Flight time N/A
Altitude 31000
Route LANVI DCT DEVDI DCT RIPUS DCT RESIA DCT LAPAB DCT LABIN DCT ELGUS DCT AIOSA DCT NOSTO DCT SALUN/N0492F330 N705 BOPIX N710 TAKRI P751 LXR M999 JDW G650 RASKA/N0500F340 G650 ULONI UG650 KONET/N0498F350 DCT XADOX DCT DWA UN304 APKAK/N0496F360 UN304 DENLI/N0494F370 UN304 UVENA UVENA2R
Aircraft B77W/H-SDE1E2E3FGHIJ2J3J4J5M1RWXY/LB1D1

Departure

Time 2026-05-06 23:22
Airport Charles de Gaulle International Airport (LFPG)

Arrival

Time N/A
Airport Roland Garros Airport (FMEE)
Time Latitude Longitude Altitude Speed Heading
2026-05-06 22:47 49.00398 2.58987 359 ft 0 kts 86°
2026-05-06 23:13 49.00398 2.58976 363 ft 4 kts 88°
2026-05-06 23:13 49.00399 2.58935 359 ft 4 kts 101°
2026-05-06 23:14 49.00407 2.58896 367 ft 4 kts 118°
2026-05-06 23:14 49.00422 2.58865 366 ft 4 kts 146°
2026-05-06 23:14 49.00437 2.58854 363 ft 0 kts 175°
2026-05-06 23:17 49.00404 2.58859 366 ft 11 kts 175°
2026-05-06 23:17 49.00283 2.58872 366 ft 20 kts 175°
2026-05-06 23:17 49.00146 2.58890 365 ft 20 kts 175°
2026-05-06 23:18 49.00053 2.59011 364 ft 20 kts 96°
2026-05-06 23:18 49.00059 2.59220 365 ft 20 kts 85°
2026-05-06 23:18 49.00070 2.59430 359 ft 20 kts 85°
2026-05-06 23:18 49.00083 2.59638 363 ft 20 kts 85°
2026-05-06 23:19 49.00093 2.59847 362 ft 20 kts 86°
2026-05-06 23:19 49.00104 2.60056 363 ft 20 kts 84°
2026-05-06 23:19 49.00117 2.60264 365 ft 20 kts 85°
2026-05-06 23:19 49.00129 2.60473 359 ft 20 kts 85°
2026-05-06 23:20 49.00138 2.60682 363 ft 20 kts 86°
2026-05-06 23:20 49.00145 2.60891 363 ft 20 kts 99°
2026-05-06 23:20 49.00048 2.61014 364 ft 20 kts 174°
2026-05-06 23:20 48.99914 2.60995 363 ft 20 kts 208°
2026-05-06 23:21 48.99865 2.60811 358 ft 20 kts 265°
2026-05-06 23:21 48.99853 2.60593 360 ft 27 kts 264°
2026-05-06 23:21 48.99821 2.59997 359 ft 86 kts 265°
2026-05-06 23:21 48.99758 2.58800 363 ft 139 kts 265°
2026-05-06 23:22 48.99670 2.57092 364 ft 182 kts 266°
2026-05-06 23:22 48.99580 2.55042 426 ft 202 kts 265°
2026-05-06 23:22 48.99438 2.52890 733 ft 207 kts 265°
2026-05-06 23:22 48.99291 2.50679 1109 ft 213 kts 266°
2026-05-06 23:23 48.99123 2.48412 1464 ft 218 kts 265°
2026-05-06 23:23 48.98958 2.46121 1806 ft 224 kts 266°
2026-05-06 23:23 48.98814 2.43731 2127 ft 230 kts 268°
2026-05-06 23:23 48.98694 2.41280 2471 ft 234 kts 268°
2026-05-06 23:24 48.98587 2.38785 2838 ft 238 kts 268°
2026-05-06 23:24 48.98495 2.36247 3234 ft 242 kts 268°
2026-05-06 23:24 48.98395 2.33672 3621 ft 246 kts 267°
2026-05-06 23:24 48.98250 2.31030 3927 ft 255 kts 265°
2026-05-06 23:25 48.98095 2.28299 4272 ft 262 kts 266°
2026-05-06 23:25 48.97974 2.25504 4699 ft 266 kts 262°
2026-05-06 23:25 48.97432 2.22812 5096 ft 270 kts 239°
2026-05-06 23:25 48.96153 2.20690 5426 ft 278 kts 211°
2026-05-06 23:26 48.94317 2.19827 5865 ft 281 kts 180°
2026-05-06 23:26 48.92412 2.20228 6530 ft 273 kts 166°
2026-05-06 23:26 48.90616 2.21198 6939 ft 278 kts 155°
2026-05-06 23:26 48.88815 2.22399 7173 ft 285 kts 160°
2026-05-06 23:27 48.86967 2.23509 7619 ft 286 kts 161°
2026-05-06 23:27 48.85090 2.24560 8071 ft 288 kts 160°
2026-05-06 23:27 48.83220 2.25681 8514 ft 289 kts 156°
2026-05-06 23:27 48.81516 2.27334 8863 ft 295 kts 137°
2026-05-06 23:28 48.80239 2.29764 9281 ft 296 kts 115°
2026-05-06 23:28 48.79674 2.32751 9689 ft 297 kts 92°
2026-05-06 23:28 48.79868 2.35860 10048 ft 296 kts 76°
2026-05-06 23:28 48.80343 2.38938 10281 ft 306 kts 75°
2026-05-06 23:29 48.80878 2.42084 10355 ft 318 kts 79°
2026-05-06 23:29 48.81165 2.45487 10493 ft 332 kts 85°
2026-05-06 23:29 48.81330 2.49058 10620 ft 347 kts 86°
2026-05-06 23:29 48.81490 2.52784 10744 ft 363 kts 85°
2026-05-06 23:30 48.81680 2.56664 11003 ft 373 kts 85°
2026-05-06 23:30 48.81899 2.60641 11416 ft 381 kts 84°
2026-05-06 23:30 48.82139 2.64658 11974 ft 383 kts 84°
2026-05-06 23:30 48.82392 2.68690 12665 ft 384 kts 84°
2026-05-06 23:31 48.82650 2.72737 13318 ft 386 kts 83°
2026-05-06 23:31 48.82912 2.76811 13924 ft 389 kts 83°
2026-05-06 23:31 48.83176 2.80921 14455 ft 393 kts 84°
2026-05-06 23:31 48.83441 2.85075 14962 ft 397 kts 84°
2026-05-06 23:32 48.83706 2.89271 15480 ft 401 kts 84°
2026-05-06 23:32 48.83973 2.93502 16016 ft 405 kts 84°
2026-05-06 23:32 48.84240 2.97770 16530 ft 408 kts 84°
2026-05-06 23:32 48.84521 3.02011 17047 ft 410 kts 82°
2026-05-06 23:33 48.85082 3.06284 17508 ft 415 kts 75°
2026-05-06 23:33 48.85857 3.10535 17924 ft 421 kts 73°
2026-05-06 23:33 48.86696 3.14821 18398 ft 425 kts 73°
2026-05-06 23:33 48.87528 3.19136 18872 ft 427 kts 73°
2026-05-06 23:34 48.88336 3.23492 19365 ft 429 kts 74°
2026-05-06 23:34 48.89122 3.27881 19832 ft 431 kts 75°
2026-05-06 23:34 48.89897 3.32301 20288 ft 434 kts 75°
2026-05-06 23:34 48.90671 3.36765 20721 ft 437 kts 75°
2026-05-06 23:35 48.91445 3.41248 21149 ft 440 kts 75°
2026-05-06 23:35 48.92225 3.45760 21581 ft 443 kts 75°
2026-05-06 23:35 48.93009 3.50304 22012 ft 445 kts 75°
2026-05-06 23:35 48.93740 3.54896 22420 ft 447 kts 81°
2026-05-06 23:36 48.93835 3.59613 22705 ft 449 kts 95°
2026-05-06 23:36 48.93509 3.64293 23027 ft 452 kts 97°
2026-05-06 23:36 48.93163 3.69072 23438 ft 455 kts 96°
2026-05-06 23:36 48.92843 3.73865 23815 ft 457 kts 96°
2026-05-06 23:37 48.92550 3.78687 24191 ft 458 kts 95°
2026-05-06 23:37 48.92363 3.81955 24446 ft 459 kts 95°
2026-05-06 23:37 48.92011 3.88379 24908 ft 462 kts 95°
2026-05-06 23:37 48.91833 3.91669 25135 ft 463 kts 95°
2026-05-06 23:38 48.91570 3.96489 25460 ft 465 kts 95°
2026-05-06 23:38 48.91296 4.01459 25789 ft 467 kts 95°
2026-05-06 23:38 48.91025 4.06322 26116 ft 468 kts 95°
2026-05-06 23:38 48.90747 4.11259 26439 ft 470 kts 95°
2026-05-06 23:39 48.90465 4.16217 26759 ft 472 kts 95°
2026-05-06 23:39 48.90140 4.21177 27032 ft 472 kts 99°
2026-05-06 23:39 48.89202 4.25959 27205 ft 474 kts 118°
2026-05-06 23:39 48.87562 4.30291 27389 ft 474 kts 121°
2026-05-06 23:40 48.85870 4.34610 27635 ft 477 kts 121°
2026-05-06 23:40 48.84195 4.38968 27972 ft 478 kts 120°
2026-05-06 23:40 48.82547 4.43342 28344 ft 477 kts 120°
2026-05-06 23:40 48.80914 4.47736 28639 ft 479 kts 120°
2026-05-06 23:41 48.79285 4.52149 28848 ft 481 kts 119°
2026-05-06 23:41 48.77651 4.56591 29065 ft 483 kts 119°
2026-05-06 23:41 48.76010 4.61050 29281 ft 485 kts 119°
2026-05-06 23:41 48.74364 4.65513 29538 ft 486 kts 119°
2026-05-06 23:42 48.72714 4.69977 29801 ft 486 kts 120°
2026-05-06 23:42 48.71059 4.74442 30102 ft 485 kts 120°
2026-05-06 23:42 48.69408 4.78887 30378 ft 484 kts 119°
2026-05-06 23:42 48.67755 4.83328 30643 ft 483 kts 119°
2026-05-06 23:43 48.66105 4.87754 30870 ft 484 kts 119°
2026-05-06 23:43 48.62794 4.96614 30959 ft 488 kts 119°
2026-05-06 23:44 48.59431 5.05580 30982 ft 493 kts 120°
2026-05-06 23:44 48.56017 5.14653 30964 ft 494 kts 120°
2026-05-06 23:45 48.52621 5.23646 30965 ft 498 kts 119°
2026-05-06 23:45 48.49169 5.32759 30970 ft 502 kts 119°
2026-05-06 23:46 48.45693 5.41902 30962 ft 504 kts 119°
2026-05-06 23:46 48.42200 5.51060 30963 ft 505 kts 119°
2026-05-06 23:47 48.38687 5.60236 30965 ft 505 kts 119°
2026-05-06 23:47 48.35171 5.69392 30955 ft 505 kts 119°
2026-05-06 23:48 48.31651 5.78531 30961 ft 505 kts 119°
2026-05-06 23:48 48.28414 5.87859 30958 ft 503 kts 114°
2026-05-06 23:49 48.25478 5.97393 30951 ft 503 kts 114°
2026-05-06 23:49 48.22535 6.06899 30954 ft 502 kts 114°
2026-05-06 23:50 48.19560 6.16271 30952 ft 501 kts 115°
2026-05-06 23:50 48.15020 6.30367 30946 ft 500 kts 115°
2026-05-06 23:51 48.11984 6.39750 30951 ft 501 kts 115°
2026-05-06 23:51 48.08942 6.49129 30956 ft 501 kts 115°
2026-05-06 23:52 48.05893 6.58500 30954 ft 501 kts 115°
2026-05-06 23:52 48.02835 6.67862 30958 ft 501 kts 115°
2026-05-06 23:53 47.99767 6.77218 30950 ft 502 kts 115°
2026-05-06 23:53 47.96692 6.86564 30959 ft 501 kts 116°
2026-05-06 23:54 47.93615 6.95880 30950 ft 500 kts 116°
2026-05-06 23:54 47.90537 7.05164 30945 ft 499 kts 116°
2026-05-06 23:55 47.87457 7.14424 30949 ft 498 kts 116°
2026-05-06 23:55 47.84371 7.23669 30947 ft 499 kts 117°
2026-05-06 23:56 47.81292 7.32860 30955 ft 500 kts 117°
2026-05-06 23:56 47.78178 7.42125 30955 ft 501 kts 117°
2026-05-06 23:57 47.75043 7.51415 30960 ft 504 kts 117°
2026-05-06 23:57 47.71341 7.60241 30962 ft 505 kts 128°
2026-05-06 23:58 47.67107 7.68596 30972 ft 507 kts 128°
2026-05-06 23:58 47.62871 7.76993 30966 ft 509 kts 129°
2026-05-06 23:59 47.58651 7.85428 30970 ft 510 kts 128°
2026-05-06 23:59 47.54457 7.93814 30966 ft 510 kts 128°
2026-05-07 00:00 47.50232 8.02235 30961 ft 510 kts 128°
2026-05-07 00:00 47.45998 8.10639 30974 ft 510 kts 128°
2026-05-07 00:01 47.41754 8.19035 30976 ft 510 kts 128°
2026-05-07 00:01 47.37502 8.27425 30973 ft 511 kts 128°
2026-05-07 00:02 47.33244 8.35805 30962 ft 509 kts 130°
2026-05-07 00:02 47.29001 8.44128 30965 ft 507 kts 130°
2026-05-07 00:03 47.24770 8.52422 30961 ft 506 kts 129°
2026-05-07 00:03 47.20620 8.60790 30963 ft 506 kts 129°
2026-05-07 00:04 47.16491 8.69180 30943 ft 506 kts 129°
2026-05-07 00:04 47.12358 8.77533 30963 ft 505 kts 130°
2026-05-07 00:05 47.08210 8.85856 30972 ft 505 kts 130°
2026-05-07 00:05 47.04053 8.94163 30961 ft 505 kts 130°
2026-05-07 00:06 46.99891 9.02464 30978 ft 505 kts 131°
2026-05-07 00:06 46.95731 9.10736 30967 ft 504 kts 132°
2026-05-07 00:07 46.91567 9.18988 30973 ft 503 kts 132°
2026-05-07 00:07 46.87402 9.27218 30980 ft 504 kts 132°
2026-05-07 00:08 46.83255 9.35390 30987 ft 504 kts 132°
2026-05-07 00:08 46.79073 9.43605 30965 ft 503 kts 134°
2026-05-07 00:09 46.74890 9.51797 30978 ft 504 kts 134°
2026-05-07 00:09 46.70703 9.59978 30981 ft 504 kts 134°
2026-05-07 00:10 46.66500 9.68166 30976 ft 505 kts 134°
2026-05-07 00:10 46.62284 9.76346 30964 ft 505 kts 134°
2026-05-07 00:11 46.58069 9.84513 31005 ft 503 kts 134°
2026-05-07 00:11 46.53856 9.92646 30979 ft 504 kts 134°
2026-05-07 00:12 46.49641 10.00763 30989 ft 503 kts 134°
2026-05-07 00:12 46.45465 10.08932 30984 ft 506 kts 133°
2026-05-07 00:13 46.41476 10.17346 30973 ft 507 kts 131°
2026-05-07 00:13 46.37535 10.25742 30965 ft 508 kts 131°
2026-05-07 00:14 46.33520 10.34176 30967 ft 510 kts 132°
2026-05-07 00:14 46.29468 10.42600 30953 ft 510 kts 132°
2026-05-07 00:15 46.25414 10.51004 30940 ft 508 kts 132°
2026-05-07 00:15 46.21377 10.59342 30954 ft 506 kts 132°
2026-05-07 00:16 46.17336 10.67661 30972 ft 507 kts 132°
2026-05-07 00:16 46.13292 10.75969 30971 ft 503 kts 132°
2026-05-07 00:17 46.09269 10.84215 30979 ft 502 kts 133°
2026-05-07 00:17 46.05243 10.92430 30981 ft 502 kts 133°
2026-05-07 00:18 46.01233 11.00582 30980 ft 504 kts 133°
2026-05-07 00:18 45.97171 11.08831 30980 ft 506 kts 133°
2026-05-07 00:19 45.93096 11.17085 30941 ft 507 kts 133°
2026-05-07 00:19 45.89012 11.25329 30940 ft 506 kts 133°
2026-05-07 00:20 45.84932 11.33542 30961 ft 505 kts 133°
2026-05-07 00:20 45.80850 11.41736 30940 ft 505 kts 133°
2026-05-07 00:21 45.76760 11.49912 30934 ft 505 kts 133°
2026-05-07 00:21 45.72667 11.58079 30930 ft 504 kts 134°
2026-05-07 00:22 45.68574 11.66225 30930 ft 503 kts 134°
2026-05-07 00:22 45.64480 11.74348 30940 ft 502 kts 134°
2026-05-07 00:23 45.60392 11.82433 30905 ft 502 kts 134°
2026-05-07 00:23 45.56294 11.90518 30926 ft 503 kts 134°
2026-05-07 00:24 45.52214 11.98558 30926 ft 504 kts 133°
2026-05-07 00:24 45.48225 12.06823 30932 ft 507 kts 131°
2026-05-07 00:25 45.44284 12.15173 30910 ft 508 kts 131°
2026-05-07 00:25 45.41001 12.22079 30932 ft 508 kts 131°
2026-05-07 00:26 45.36339 12.31790 30939 ft 509 kts 132°
2026-05-07 00:26 45.32337 12.40082 30939 ft 509 kts 132°
2026-05-07 00:27 45.28970 12.47040 30906 ft 509 kts 131°
2026-05-07 00:27 45.24956 12.55318 30929 ft 509 kts 131°
2026-05-07 00:28 45.20958 12.63542 30940 ft 510 kts 131°
2026-05-07 00:28 45.16923 12.71814 30936 ft 510 kts 131°
2026-05-07 00:29 45.12880 12.80081 30923 ft 510 kts 131°
2026-05-07 00:30 45.04785 12.96568 30941 ft 510 kts 131°
2026-05-07 00:30 45.00731 13.04788 30941 ft 509 kts 131°
2026-05-07 00:31 44.96284 13.12439 30927 ft 499 kts 142°
2026-05-07 00:31 44.91201 13.19162 30949 ft 503 kts 143°
2026-05-07 00:32 44.86080 13.25950 30956 ft 507 kts 143°
2026-05-07 00:32 44.80948 13.32811 30957 ft 510 kts 143°
2026-05-07 00:33 44.75806 13.39699 30911 ft 511 kts 142°
2026-05-07 00:33 44.70674 13.46556 30956 ft 513 kts 142°
2026-05-07 00:34 44.65486 13.53464 30960 ft 515 kts 142°
2026-05-07 00:34 44.60276 13.60380 30963 ft 516 kts 143°
2026-05-07 00:35 44.55054 13.67295 30918 ft 516 kts 142°
2026-05-07 00:35 44.49915 13.74096 30950 ft 502 kts 142°
2026-05-07 00:36 44.44825 13.80799 30975 ft 503 kts 142°
2026-05-07 00:36 44.39706 13.87517 30974 ft 505 kts 142°
2026-05-07 00:37 44.34567 13.94249 30976 ft 507 kts 142°
2026-05-07 00:37 44.29424 14.00974 30977 ft 507 kts 142°
2026-05-07 00:38 44.24255 14.07716 30979 ft 509 kts 142°
2026-05-07 00:38 44.19116 14.14402 30981 ft 510 kts 142°
2026-05-07 00:39 44.13922 14.21143 30979 ft 510 kts 142°
2026-05-07 00:39 44.08723 14.27872 30958 ft 510 kts 143°
2026-05-07 00:40 44.03526 14.34584 30976 ft 510 kts 143°
2026-05-07 00:40 43.98323 14.41285 30982 ft 510 kts 143°
2026-05-07 00:41 43.93111 14.47979 30983 ft 510 kts 143°
2026-05-07 00:41 43.87897 14.54661 30984 ft 511 kts 143°
2026-05-07 00:42 43.82673 14.61340 30984 ft 510 kts 143°
2026-05-07 00:42 43.77451 14.67999 30983 ft 510 kts 143°
2026-05-07 00:43 43.72226 14.74646 30980 ft 510 kts 143°
2026-05-07 00:43 43.67005 14.81271 30981 ft 510 kts 143°
2026-05-07 00:44 43.61812 14.87845 30968 ft 509 kts 143°
2026-05-07 00:44 43.56591 14.94441 30956 ft 509 kts 143°
2026-05-07 00:45 43.51551 15.01332 30967 ft 511 kts 139°
2026-05-07 00:45 43.46690 15.08491 30963 ft 512 kts 139°
2026-05-07 00:46 43.41820 15.15644 30961 ft 512 kts 139°
2026-05-07 00:46 43.36934 15.22766 30959 ft 512 kts 139°
2026-05-07 00:47 43.32038 15.29868 30937 ft 512 kts 139°
2026-05-07 00:47 43.27166 15.36914 30958 ft 512 kts 139°
2026-05-07 00:48 43.22253 15.44005 30959 ft 513 kts 139°
2026-05-07 00:48 43.17327 15.51098 30965 ft 514 kts 139°
2026-05-07 00:49 43.12392 15.58189 30951 ft 514 kts 140°
2026-05-07 00:49 43.07449 15.65272 30939 ft 514 kts 140°
2026-05-07 00:50 43.02506 15.72337 30951 ft 514 kts 140°
2026-05-07 00:50 42.97557 15.79393 30961 ft 514 kts 140°
2026-05-07 00:51 42.92605 15.86436 30957 ft 514 kts 140°
2026-05-07 00:51 42.87651 15.93465 30978 ft 513 kts 140°
2026-05-07 00:52 42.82698 16.00475 30952 ft 513 kts 140°
2026-05-07 00:52 42.77781 16.07415 30973 ft 512 kts 140°
2026-05-07 00:53 42.72825 16.14394 30973 ft 512 kts 140°
2026-05-07 00:53 42.67872 16.21353 30980 ft 512 kts 140°
2026-05-07 00:54 42.62915 16.28300 30978 ft 511 kts 140°
2026-05-07 00:54 42.57969 16.35215 30957 ft 510 kts 140°
2026-05-07 00:55 42.53027 16.42108 30981 ft 509 kts 140°
2026-05-07 00:55 42.48079 16.48990 30990 ft 510 kts 140°
2026-05-07 00:56 42.43125 16.55865 30987 ft 510 kts 140°
2026-05-07 00:56 42.38199 16.62686 30989 ft 509 kts 140°
2026-05-07 00:57 42.33250 16.69523 30990 ft 508 kts 140°
2026-05-07 00:57 42.28309 16.76334 30986 ft 507 kts 140°
2026-05-07 00:58 42.23369 16.83123 31004 ft 507 kts 140°
2026-05-07 00:58 42.18425 16.89904 31002 ft 506 kts 140°
2026-05-07 00:59 42.11010 17.00043 31008 ft 506 kts 140°
2026-05-07 01:00 42.06069 17.06781 30999 ft 506 kts 139°
2026-05-07 01:00 42.01122 17.13510 31022 ft 507 kts 139°
2026-05-07 01:01 41.96154 17.20256 31027 ft 508 kts 139°
2026-05-07 01:01 41.90931 17.26492 31006 ft 503 kts 148°
2026-05-07 01:02 41.85063 17.31554 31022 ft 501 kts 152°
2026-05-07 01:02 41.79164 17.36533 31032 ft 501 kts 152°
2026-05-07 01:03 41.73276 17.41552 31013 ft 502 kts 152°
2026-05-07 01:03 41.67381 17.46596 31027 ft 503 kts 152°
2026-05-07 01:04 41.61475 17.51641 31053 ft 504 kts 152°
2026-05-07 01:04 41.55555 17.56685 31030 ft 505 kts 152°
2026-05-07 01:05 41.49633 17.61717 31037 ft 505 kts 152°
2026-05-07 01:05 41.43704 17.66743 31041 ft 505 kts 152°
2026-05-07 01:06 41.37773 17.71760 31044 ft 505 kts 152°
2026-05-07 01:06 41.31886 17.76729 31039 ft 505 kts 152°
2026-05-07 01:07 41.25949 17.81729 31053 ft 505 kts 152°
2026-05-07 01:07 41.20006 17.86724 31042 ft 505 kts 151°
2026-05-07 01:08 41.14064 17.91707 31058 ft 505 kts 151°
2026-05-07 01:08 41.08121 17.96680 31054 ft 505 kts 151°
2026-05-07 01:09 41.02171 18.01648 31061 ft 505 kts 151°
2026-05-07 01:09 40.96224 18.06602 31053 ft 505 kts 151°
2026-05-07 01:10 40.90266 18.11555 31055 ft 505 kts 151°
2026-05-07 01:10 40.84349 18.16464 31072 ft 505 kts 151°
2026-05-07 01:11 40.78391 18.21396 31070 ft 506 kts 151°
2026-05-07 01:11 40.72427 18.26322 31050 ft 506 kts 151°
2026-05-07 01:12 40.66458 18.31242 31057 ft 506 kts 151°
2026-05-07 01:12 40.60485 18.36155 31070 ft 507 kts 151°
2026-05-07 01:13 40.54500 18.41067 31068 ft 507 kts 151°
2026-05-07 01:13 40.48504 18.45977 31062 ft 508 kts 151°
2026-05-07 01:14 40.42481 18.50898 31077 ft 511 kts 151°
2026-05-07 01:14 40.36431 18.55832 31082 ft 513 kts 151°
2026-05-07 01:15 40.30356 18.60776 31086 ft 515 kts 151°
2026-05-07 01:15 40.24272 18.65717 31070 ft 515 kts 151°
2026-05-07 01:16 40.18177 18.70656 31084 ft 515 kts 151°
2026-05-07 01:16 40.12091 18.75578 31084 ft 514 kts 151°
2026-05-07 01:17 40.06011 18.80483 31072 ft 514 kts 151°
2026-05-07 01:17 39.99927 18.85382 31081 ft 514 kts 151°
2026-05-07 01:18 39.93841 18.90272 31093 ft 514 kts 150°
2026-05-07 01:18 39.87795 18.95122 31089 ft 513 kts 150°
2026-05-07 01:19 39.81726 19.00025 31099 ft 514 kts 148°
2026-05-07 01:19 39.76041 19.05709 31103 ft 515 kts 143°
2026-05-07 01:20 39.71408 19.10565 31088 ft 515 kts 143°
2026-05-07 01:20 39.65804 19.16400 31081 ft 516 kts 143°
2026-05-07 01:21 39.60172 19.22207 31090 ft 518 kts 143°
2026-05-07 01:21 39.54519 19.28007 31087 ft 519 kts 143°
2026-05-07 01:22 39.48848 19.33810 31078 ft 520 kts 143°
2026-05-07 01:22 39.43166 19.39616 31078 ft 520 kts 143°
2026-05-07 01:23 39.37494 19.45401 31075 ft 519 kts 143°
2026-05-07 01:23 39.31846 19.51149 31072 ft 520 kts 143°
2026-05-07 01:24 39.26164 19.56920 31083 ft 520 kts 144°
2026-05-07 01:24 39.20470 19.62691 31075 ft 520 kts 144°
2026-05-07 01:25 39.14776 19.68448 31087 ft 520 kts 144°
2026-05-07 01:25 39.09076 19.74199 31087 ft 521 kts 144°
2026-05-07 01:26 39.03369 19.79946 31087 ft 521 kts 144°
2026-05-07 01:26 38.97656 19.85687 31088 ft 522 kts 144°
2026-05-07 01:27 38.91924 19.91435 31096 ft 523 kts 144°
2026-05-07 01:27 38.86181 19.97182 31096 ft 524 kts 144°
2026-05-07 01:28 38.80418 20.02936 31093 ft 525 kts 144°
2026-05-07 01:28 38.74654 20.08679 31097 ft 525 kts 144°
2026-05-07 01:29 38.68884 20.14417 31079 ft 525 kts 144°
2026-05-07 01:29 38.63111 20.20145 31094 ft 525 kts 144°
2026-05-07 01:30 38.57323 20.25875 31094 ft 526 kts 144°
2026-05-07 01:30 38.51575 20.31556 31096 ft 526 kts 144°